Los Alamitos, CA

1:29 AM PST on February 07, 2016 (GMT -0800)
Los Alamitos Army Air Field

Weather History for KSLI - November, 2012

Change the Weather History Date:

Wednesday, November 7, 2012

  Actual Average Record
Temperature  
Mean Temperature 62 °F -  
Max Temperature 70 °F 72 °F 90 °F (2014)
Min Temperature 55 °F 56 °F 42 °F (2011)
Degree Days  
Heating Degree Days 2    
Growing Degree Days 12 (Base 50)    
Moisture  
Dew Point 60 °F    
Average Humidity 93    
Maximum Humidity 100    
Minimum Humidity 72    
Precipitation  
Precipitation 0.00 in - - ()
Sea Level Pressure  
Sea Level Pressure 30.02 in    
Wind  
Wind Speed 3 mph (SSW)    
Max Wind Speed 10 mph    
Max Gust Speed -    
Visibility 8 miles    
Events      
Averages and records for this station are not official NWS values.
T = Trace of Precipitation, MM = Missing Value Source: NWS Daily Summary

Daily Weather History Graph

Daily Weather History Graph

Search for Another Location

Airport or City:

Trip Planner

Search our weather history database for the weather conditions in past years. The results will help you decide how hot, cold, wet, or windy it might be!

Date:

Astronomy

Nov. 07, 2012 Rise Set
Actual Time 6:17 AM PST 4:54 PM PST
Civil Twilight 5:51 AM PST 5:20 PM PST
Nautical Twilight 5:21 AM PST 5:49 PM PST
Astronomical Twilight 4:52 AM PST 6:19 PM PST
Moon No Moon Rise 12:48 PM PST
Length of Visible Light 11h 28m
Length of Day
10h 36m
Last Quarter, 42% of the Moon is Illuminated
Nov 7
Last Quarter
Nov 13
New
Nov 20
First Quarter
Nov 28
Full
Dec 6
Last Quarter

Hourly Weather History & Observations

Time (PST) Temp. Dew Point Humidity Pressure Visibility Wind Dir Wind Speed Gust Speed Precip Events Conditions
12:58 AM 62.8 °F 62.8 °F 100% 30.06 in 10.0 mi East 4.6 mph - N/A   Overcast
1:58 AM 62.6 °F 62.6 °F 100% 30.05 in 9.0 mi Calm Calm - N/A   Overcast
2:58 AM 62.1 °F 62.1 °F 100% 30.04 in 10.0 mi ESE 2.3 mph - N/A   Overcast
3:08 AM 62.6 °F 62.6 °F 100% 30.04 in 10.0 mi East 3.5 mph - N/A   Overcast
3:58 AM 61.9 °F 61.9 °F 100% 30.04 in 10.0 mi North 2.3 mph - N/A   Overcast
4:58 AM 61.0 °F 61.0 °F 100% 30.04 in 10.0 mi Calm Calm - N/A   Overcast
5:58 AM 61.0 °F 60.8 °F 99% 30.05 in 10.0 mi Calm Calm - N/A   Overcast
6:58 AM 60.8 °F 60.4 °F 99% 30.06 in 3.0 mi NNE 2.3 mph - N/A   Overcast
7:58 AM 61.0 °F 60.6 °F 99% 30.08 in 3.0 mi Calm Calm - N/A   Overcast
8:58 AM 61.9 °F 60.4 °F 95% 30.08 in 3.0 mi SSE 2.3 mph - N/A   Mostly Cloudy
9:03 AM 62.6 °F 60.8 °F 94% 30.07 in 3.0 mi Variable 1.2 mph - N/A   Scattered Clouds
9:58 AM 65.3 °F 60.3 °F 84% 30.07 in 4.0 mi Variable 3.5 mph - N/A   Haze
10:58 AM 67.6 °F 60.4 °F 78% 30.06 in 4.0 mi Variable 5.8 mph - N/A   Haze
11:58 AM 69.4 °F 60.1 °F 72% 30.03 in 7.0 mi South 10.4 mph - N/A   Partly Cloudy
12:58 PM 68.7 °F 60.8 °F 76% 30.01 in 7.0 mi Variable 3.5 mph - N/A   Clear
1:58 PM 70.3 °F 61.3 °F 73% 29.99 in 7.0 mi South 5.8 mph - N/A   Clear
2:58 PM 69.4 °F 61.0 °F 74% 29.98 in 10.0 mi South 8.1 mph - N/A   Clear
3:58 PM 68.2 °F 60.4 °F 76% 29.97 in 10.0 mi South 8.1 mph - N/A   Clear
4:58 PM 64.0 °F 60.4 °F 88% 29.97 in 10.0 mi SSW 6.9 mph - N/A   Clear
5:58 PM 62.1 °F 59.9 °F 93% 29.98 in 10.0 mi WNW 6.9 mph - N/A   Clear
6:58 PM 59.9 °F 59.4 °F 98% 29.99 in 10.0 mi WNW 3.5 mph - N/A   Clear
7:58 PM 59.4 °F 59.0 °F 99% 29.99 in 10.0 mi West 2.3 mph - N/A   Clear
8:58 PM 57.4 °F 57.4 °F 100% 29.99 in 10.0 mi Calm Calm - N/A   Clear
9:58 PM 55.9 °F 55.9 °F 100% 30.00 in 10.0 mi WSW 3.5 mph - N/A   Partly Cloudy
10:08 PM 57.2 °F 57.2 °F 100% 29.99 in 10.0 mi WSW 2.3 mph - N/A   Mostly Cloudy
10:58 PM 59.2 °F 59.2 °F 100% 30.00 in 10.0 mi Calm Calm - N/A   Overcast
11:28 PM 60.8 °F 60.8 °F 100% 29.98 in 10.0 mi ENE 1.2 mph - N/A   Overcast
11:58 PM 60.8 °F 59.7 °F 96% 29.99 in 10.0 mi SSW 2.3 mph - N/A   Overcast